Time,TemperatureF,DewpointF,PressureIn,WindDirection,WindDirectionDegrees,WindSpeedMPH,WindSpeedGustMPH,Humidity,HourlyPrecipIn,Conditions,Clouds,dailyrainin,SolarRadiationWatts/m^2,SoftwareType,DateUTC
2013-03-29 00:01:00,66.3,17.3,29.94,South,171,1.0,3.0,15,0.00,,,0.00,0,LWC V2.00 B727,2013-03-29 07:01:00,
2013-03-29 00:06:00,66.3,17.3,29.94,South,171,1.0,3.0,15,0.00,,,0.00,0,LWC V2.00 B727,2013-03-29 07:06:00,
2013-03-29 00:11:00,66.2,17.2,29.94,South,171,0.0,1.0,15,0.00,,,0.00,0,LWC V2.00 B727,2013-03-29 07:11:00,
2013-03-29 00:16:00,66.1,17.1,29.94,South,171,0.0,2.0,15,0.00,,,0.00,0,LWC V2.00 B727,2013-03-29 07:16:00,
2013-03-29 00:21:00,65.3,18.0,29.94,South,171,0.0,1.0,16,0.00,,,0.00,0,LWC V2.00 B727,2013-03-29 07:21:00,
2013-03-29 00:26:00,65.4,16.6,29.94,South,171,0.0,2.0,15,0.00,,,0.00,0,LWC V2.00 B727,2013-03-29 07:26:00,
2013-03-29 00:31:00,65.8,15.3,29.94,South,171,0.0,0.0,14,0.00,,,0.00,0,LWC V2.00 B727,2013-03-29 07:31:00,
2013-03-29 00:36:00,66.1,15.5,29.94,South,171,1.0,1.0,14,0.00,,,0.00,0,LWC V2.00 B727,2013-03-29 07:36:00,
2013-03-29 00:41:00,65.9,15.4,29.94,South,171,0.0,1.0,14,0.00,,,0.00,0,LWC V2.00 B727,2013-03-29 07:41:00,
2013-03-29 00:46:00,65.2,16.4,29.94,South,171,0.0,1.0,15,0.00,,,0.00,0,LWC V2.00 B727,2013-03-29 07:46:00,
2013-03-29 00:51:00,64.4,17.2,29.94,South,171,0.0,0.0,16,0.00,,,0.00,0,LWC V2.00 B727,2013-03-29 07:51:00,
2013-03-29 00:56:00,64.0,16.9,29.94,South,171,0.0,0.0,16,0.00,,,0.00,0,LWC V2.00 B727,2013-03-29 07:56:00,
2013-03-29 01:01:00,64.2,15.6,29.94,South,171,0.0,3.0,15,0.00,,,0.00,0,LWC V2.00 B727,2013-03-29 08:01:00,
2013-03-29 01:06:00,64.3,15.7,29.94,South,171,0.0,1.0,15,0.00,,,0.00,0,LWC V2.00 B727,2013-03-29 08:06:00,
2013-03-29 01:11:00,64.3,15.7,29.94,South,171,0.0,1.0,15,0.00,,,0.00,0,LWC V2.00 B727,2013-03-29 08:11:00,
2013-03-29 01:16:00,64.4,15.8,29.94,South,171,0.0,0.0,15,0.00,,,0.00,0,LWC V2.00 B727,2013-03-29 08:16:00,
2013-03-29 01:21:00,64.7,16.0,29.94,South,171,0.0,0.0,15,0.00,,,0.00,0,LWC V2.00 B727,2013-03-29 08:21:00,
2013-03-29 01:26:00,64.5,15.8,29.94,South,171,1.0,1.0,15,0.00,,,0.00,0,LWC V2.00 B727,2013-03-29 08:26:00,
2013-03-29 01:31:00,64.4,15.8,29.94,SE,134,2.0,3.0,15,0.00,,,0.00,0,LWC V2.00 B727,2013-03-29 08:31:00,
2013-03-29 01:36:00,63.9,16.8,29.94,SE,140,0.0,1.0,16,0.00,,,0.00,0,LWC V2.00 B727,2013-03-29 08:36:00,
2013-03-29 01:41:00,63.8,16.8,29.94,SE,140,1.0,1.0,16,0.00,,,0.00,0,LWC V2.00 B727,2013-03-29 08:41:00,
2013-03-29 01:46:00,63.4,16.4,29.94,SE,140,0.0,0.0,16,0.00,,,0.00,0,LWC V2.00 B727,2013-03-29 08:46:00,
2013-03-29 01:51:00,63.1,16.2,29.94,SE,140,0.0,1.0,16,0.00,,,0.00,0,LWC V2.00 B727,2013-03-29 08:51:00,
2013-03-29 01:56:00,62.9,16.0,29.94,SE,140,0.0,0.0,16,0.00,,,0.00,0,LWC V2.00 B727,2013-03-29 08:56:00,
2013-03-29 02:01:00,62.8,16.0,29.94,SE,140,0.0,0.0,16,0.00,,,0.00,0,LWC V2.00 B727,2013-03-29 09:01:00,
2013-03-29 02:06:00,62.7,15.9,29.94,SE,140,0.0,0.0,16,0.00,,,0.00,0,LWC V2.00 B727,2013-03-29 09:06:00,
2013-03-29 02:11:00,62.6,17.2,29.94,SE,140,0.0,0.0,17,0.00,,,0.00,0,LWC V2.00 B727,2013-03-29 09:11:00,
2013-03-29 02:16:00,63.0,16.1,29.94,SE,140,0.0,0.0,16,0.00,,,0.00,0,LWC V2.00 B727,2013-03-29 09:16:00,
2013-03-29 02:21:00,63.8,16.8,29.94,SE,140,0.0,0.0,16,0.00,,,0.00,0,LWC V2.00 B727,2013-03-29 09:21:00,
2013-03-29 02:26:00,63.8,16.8,29.94,SE,140,0.0,0.0,16,0.00,,,0.00,0,LWC V2.00 B727,2013-03-29 09:26:00,
2013-03-29 02:31:00,63.5,17.9,29.93,SE,140,0.0,2.0,17,0.00,,,0.00,0,LWC V2.00 B727,2013-03-29 09:31:00,
2013-03-29 02:36:00,63.2,17.7,29.94,SE,140,0.0,1.0,17,0.00,,,0.00,0,LWC V2.00 B727,2013-03-29 09:36:00,
2013-03-29 02:41:00,62.8,17.4,29.93,SE,140,0.0,1.0,17,0.00,,,0.00,0,LWC V2.00 B727,2013-03-29 09:41:00,
2013-03-29 02:46:00,62.7,17.3,29.93,SE,140,2.0,3.0,17,0.00,,,0.00,0,LWC V2.00 B727,2013-03-29 09:46:00,
2013-03-29 02:51:00,62.0,18.0,29.93,East,80,3.0,3.0,18,0.00,,,0.00,0,LWC V2.00 B727,2013-03-29 09:51:00,
2013-03-29 02:56:00,61.2,18.6,29.93,East,82,2.0,3.0,19,0.00,,,0.00,0,LWC V2.00 B727,2013-03-29 09:56:00,
2013-03-29 03:01:00,61.0,19.7,29.93,East,82,0.0,2.0,20,0.00,,,0.00,0,LWC V2.00 B727,2013-03-29 10:01:00,
2013-03-29 03:06:00,61.3,19.9,29.93,East,80,3.0,5.0,20,0.00,,,0.00,0,LWC V2.00 B727,2013-03-29 10:06:00,
2013-03-29 03:11:00,61.2,21.0,29.92,East,79,3.0,5.0,21,0.00,,,0.00,0,LWC V2.00 B727,2013-03-29 10:11:00,
2013-03-29 03:16:00,61.4,21.1,29.92,ENE,62,2.0,3.0,21,0.00,,,0.00,0,LWC V2.00 B727,2013-03-29 10:16:00,
2013-03-29 03:21:00,61.4,22.2,29.92,ENE,69,3.0,4.0,22,0.00,,,0.00,0,LWC V2.00 B727,2013-03-29 10:21:00,
2013-03-29 03:26:00,61.7,22.5,29.92,ENE,70,0.0,4.0,22,0.00,,,0.00,0,LWC V2.00 B727,2013-03-29 10:26:00,
2013-03-29 03:31:00,61.9,22.6,29.92,ENE,70,2.0,3.0,22,0.00,,,0.00,0,LWC V2.00 B727,2013-03-29 10:31:00,
2013-03-29 03:36:00,61.8,23.6,29.92,ENE,69,1.0,3.0,23,0.00,,,0.00,0,LWC V2.00 B727,2013-03-29 10:36:00,
2013-03-29 03:41:00,61.8,24.6,29.92,ENE,69,1.0,1.0,24,0.00,,,0.00,0,LWC V2.00 B727,2013-03-29 10:41:00,
2013-03-29 03:46:00,61.5,24.4,29.92,ENE,69,1.0,2.0,24,0.00,,,0.00,0,LWC V2.00 B727,2013-03-29 10:46:00,
2013-03-29 03:51:00,61.1,25.0,29.92,ENE,71,2.0,4.0,25,0.00,,,0.00,0,LWC V2.00 B727,2013-03-29 10:51:00,
2013-03-29 03:56:00,60.9,24.8,29.92,ENE,74,3.0,4.0,25,0.00,,,0.00,0,LWC V2.00 B727,2013-03-29 10:56:00,
2013-03-29 04:01:00,60.7,25.6,29.92,ENE,75,3.0,4.0,26,0.00,,,0.00,0,LWC V2.00 B727,2013-03-29 11:01:00,
2013-03-29 04:06:00,60.6,26.4,29.92,ENE,74,3.0,4.0,27,0.00,,,0.00,0,LWC V2.00 B727,2013-03-29 11:06:00,
2013-03-29 04:11:00,60.7,26.5,29.92,ENE,75,2.0,3.0,27,0.00,,,0.00,0,LWC V2.00 B727,2013-03-29 11:11:00,
2013-03-29 04:16:00,60.9,26.7,29.93,ENE,75,0.0,3.0,27,0.00,,,0.00,0,LWC V2.00 B727,2013-03-29 11:16:00,
2013-03-29 04:21:00,60.4,26.3,29.93,ENE,75,0.0,0.0,27,0.00,,,0.00,0,LWC V2.00 B727,2013-03-29 11:21:00,
2013-03-29 04:26:00,59.6,26.5,29.93,ENE,75,0.0,0.0,28,0.00,,,0.00,0,LWC V2.00 B727,2013-03-29 11:26:00,
2013-03-29 04:31:00,59.2,26.1,29.93,ENE,75,0.0,0.0,28,0.00,,,0.00,0,LWC V2.00 B727,2013-03-29 11:31:00,
2013-03-29 04:36:00,58.5,26.4,29.93,ENE,75,0.0,0.0,29,0.00,,,0.00,0,LWC V2.00 B727,2013-03-29 11:36:00,
2013-03-29 04:41:00,58.8,26.6,29.93,ENE,75,0.0,0.0,29,0.00,,,0.00,0,LWC V2.00 B727,2013-03-29 11:41:00,
2013-03-29 04:46:00,59.4,26.3,29.94,ENE,75,0.0,0.0,28,0.00,,,0.00,0,LWC V2.00 B727,2013-03-29 11:46:00,
2013-03-29 04:51:00,59.4,26.3,29.94,ENE,75,0.0,0.0,28,0.00,,,0.00,0,LWC V2.00 B727,2013-03-29 11:51:00,
2013-03-29 04:56:00,59.8,26.6,29.94,ENE,75,0.0,0.0,28,0.00,,,0.00,0,LWC V2.00 B727,2013-03-29 11:56:00,
2013-03-29 05:01:00,59.6,26.5,29.94,ENE,75,0.0,0.0,28,0.00,,,0.00,0,LWC V2.00 B727,2013-03-29 12:01:00,
2013-03-29 05:06:00,59.3,26.2,29.94,ENE,75,0.0,1.0,28,0.00,,,0.00,0,LWC V2.00 B727,2013-03-29 12:06:00,
2013-03-29 05:11:00,59.5,26.4,29.94,ENE,75,0.0,0.0,28,0.00,,,0.00,0,LWC V2.00 B727,2013-03-29 12:11:00,
2013-03-29 05:16:00,59.7,25.7,29.94,ENE,75,2.0,2.0,27,0.00,,,0.00,0,LWC V2.00 B727,2013-03-29 12:16:00,
2013-03-29 05:21:00,59.5,26.4,29.94,ENE,75,0.0,0.0,28,0.00,,,0.00,0,LWC V2.00 B727,2013-03-29 12:21:00,
2013-03-29 05:26:00,59.3,26.2,29.94,ENE,75,1.0,2.0,28,0.00,,,0.00,0,LWC V2.00 B727,2013-03-29 12:26:00,
2013-03-29 05:31:00,59.2,26.1,29.94,ENE,75,3.0,4.0,28,0.00,,,0.00,0,LWC V2.00 B727,2013-03-29 12:31:00,
2013-03-29 05:36:00,59.5,26.4,29.94,ENE,74,1.0,4.0,28,0.00,,,0.00,0,LWC V2.00 B727,2013-03-29 12:36:00,
2013-03-29 05:41:00,59.8,25.8,29.94,ENE,73,2.0,3.0,27,0.00,,,0.00,0,LWC V2.00 B727,2013-03-29 12:41:00,
2013-03-29 05:46:00,59.6,25.6,29.93,ENE,70,4.0,4.0,27,0.00,,,0.00,0,LWC V2.00 B727,2013-03-29 12:46:00,
2013-03-29 05:51:00,59.3,26.2,29.94,ENE,68,2.0,4.0,28,0.00,,,0.00,0,LWC V2.00 B727,2013-03-29 12:51:00,
2013-03-29 05:56:00,59.2,27.0,29.94,ENE,68,0.0,1.0,29,0.00,,,0.00,0,LWC V2.00 B727,2013-03-29 12:56:00,
2013-03-29 06:01:00,59.1,26.9,29.94,ENE,68,0.0,0.0,29,0.00,,,0.00,0,LWC V2.00 B727,2013-03-29 13:01:00,
2013-03-29 06:06:00,59.1,26.9,29.94,ENE,68,0.0,2.0,29,0.00,,,0.00,0,LWC V2.00 B727,2013-03-29 13:06:00,
2013-03-29 06:11:00,59.2,26.1,29.94,ENE,68,0.0,0.0,28,0.00,,,0.00,0,LWC V2.00 B727,2013-03-29 13:11:00,
2013-03-29 06:16:00,59.6,26.5,29.94,ENE,68,0.0,0.0,28,0.00,,,0.00,5,LWC V2.00 B727,2013-03-29 13:16:00,
2013-03-29 06:21:00,59.5,26.4,29.95,ENE,68,0.0,0.0,28,0.00,,,0.00,9,LWC V2.00 B727,2013-03-29 13:21:00,
2013-03-29 06:26:00,59.2,26.1,29.95,ENE,68,0.0,0.0,28,0.00,,,0.00,11,LWC V2.00 B727,2013-03-29 13:26:00,
2013-03-29 06:31:00,59.1,26.0,29.95,ENE,68,0.0,2.0,28,0.00,,,0.00,14,LWC V2.00 B727,2013-03-29 13:31:00,
2013-03-29 06:36:00,58.3,26.2,29.95,ENE,68,0.0,0.0,29,0.00,,,0.00,16,LWC V2.00 B727,2013-03-29 13:36:00,
2013-03-29 06:41:00,57.0,26.7,29.95,ENE,68,0.0,0.0,31,0.00,,,0.00,19,LWC V2.00 B727,2013-03-29 13:41:00,
2013-03-29 06:46:00,56.3,26.1,29.95,ENE,68,0.0,0.0,31,0.00,,,0.00,23,LWC V2.00 B727,2013-03-29 13:46:00,
2013-03-29 06:51:00,56.5,27.0,29.95,ENE,68,0.0,0.0,32,0.00,,,0.00,25,LWC V2.00 B727,2013-03-29 13:51:00,
2013-03-29 06:56:00,56.7,27.2,29.96,ENE,68,0.0,2.0,32,0.00,,,0.00,26,LWC V2.00 B727,2013-03-29 13:56:00,
2013-03-29 07:01:00,56.0,27.3,29.96,ENE,68,0.0,0.0,33,0.00,,,0.00,28,LWC V2.00 B727,2013-03-29 14:01:00,
2013-03-29 07:06:00,56.1,27.4,29.96,ENE,68,0.0,1.0,33,0.00,,,0.00,32,LWC V2.00 B727,2013-03-29 14:06:00,
2013-03-29 07:11:00,56.2,27.5,29.96,ENE,68,0.0,1.0,33,0.00,,,0.00,142,LWC V2.00 B727,2013-03-29 14:11:00,
2013-03-29 07:16:00,57.2,28.4,29.97,ENE,68,0.0,0.0,33,0.00,,,0.00,160,LWC V2.00 B727,2013-03-29 14:16:00,
2013-03-29 07:21:00,59.1,28.5,29.97,ENE,68,4.0,4.0,31,0.00,,,0.00,178,LWC V2.00 B727,2013-03-29 14:21:00,
2013-03-29 07:26:00,60.8,27.5,29.97,ENE,65,1.0,4.0,28,0.00,,,0.00,197,LWC V2.00 B727,2013-03-29 14:26:00,
2013-03-29 07:31:00,61.7,28.3,29.97,ENE,65,0.0,3.0,28,0.00,,,0.00,214,LWC V2.00 B727,2013-03-29 14:31:00,
2013-03-29 07:36:00,62.6,28.2,29.97,ENE,65,1.0,3.0,27,0.00,,,0.00,229,LWC V2.00 B727,2013-03-29 14:36:00,
2013-03-29 07:41:00,64.1,29.4,29.97,ENE,65,0.0,1.0,27,0.00,,,0.00,250,LWC V2.00 B727,2013-03-29 14:41:00,
2013-03-29 07:46:00,64.9,29.2,29.98,ENE,65,0.0,0.0,26,0.00,,,0.00,269,LWC V2.00 B727,2013-03-29 14:46:00,
2013-03-29 07:51:00,65.6,29.8,29.98,ENE,65,0.0,0.0,26,0.00,,,0.00,288,LWC V2.00 B727,2013-03-29 14:51:00,
2013-03-29 07:56:00,66.3,29.4,29.98,ENE,65,0.0,0.0,25,0.00,,,0.00,308,LWC V2.00 B727,2013-03-29 14:56:00,
2013-03-29 08:01:00,66.9,30.9,29.98,ENE,65,0.0,1.0,26,0.00,,,0.00,325,LWC V2.00 B727,2013-03-29 15:01:00,
2013-03-29 08:06:00,65.6,29.8,29.98,ENE,65,0.0,0.0,26,0.00,,,0.00,345,LWC V2.00 B727,2013-03-29 15:06:00,
2013-03-29 08:11:00,67.6,29.5,29.98,ENE,65,0.0,0.0,24,0.00,,,0.00,360,LWC V2.00 B727,2013-03-29 15:11:00,
2013-03-29 08:16:00,68.4,29.2,29.98,ENE,65,0.0,1.0,23,0.00,,,0.00,380,LWC V2.00 B727,2013-03-29 15:16:00,
2013-03-29 08:21:00,69.0,27.4,29.98,ENE,65,0.0,1.0,21,0.00,,,0.00,399,LWC V2.00 B727,2013-03-29 15:21:00,
2013-03-29 08:26:00,69.5,26.7,29.98,ENE,65,0.0,0.0,20,0.00,,,0.00,417,LWC V2.00 B727,2013-03-29 15:26:00,
2013-03-29 08:31:00,70.2,28.4,29.98,ENE,65,0.0,0.0,21,0.00,,,0.00,436,LWC V2.00 B727,2013-03-29 15:31:00,
2013-03-29 08:36:00,69.7,26.8,29.98,ENE,65,0.0,1.0,20,0.00,,,0.00,454,LWC V2.00 B727,2013-03-29 15:36:00,
2013-03-29 08:41:00,69.5,24.1,29.98,ENE,65,0.0,1.0,18,0.00,,,0.00,469,LWC V2.00 B727,2013-03-29 15:41:00,
2013-03-29 08:46:00,69.4,24.1,29.98,ENE,65,0.0,1.0,18,0.00,,,0.00,483,LWC V2.00 B727,2013-03-29 15:46:00,
2013-03-29 08:51:00,69.5,24.1,29.98,ENE,65,1.0,1.0,18,0.00,,,0.00,504,LWC V2.00 B727,2013-03-29 15:51:00,
2013-03-29 08:56:00,70.2,26.0,29.98,ENE,65,0.0,0.0,19,0.00,,,0.00,524,LWC V2.00 B727,2013-03-29 15:56:00,
2013-03-29 09:01:00,70.3,26.1,29.98,ENE,65,0.0,0.0,19,0.00,,,0.00,540,LWC V2.00 B727,2013-03-29 16:01:00,
2013-03-29 09:06:00,70.9,25.3,29.98,ENE,66,1.0,1.0,18,0.00,,,0.00,555,LWC V2.00 B727,2013-03-29 16:06:00,
2013-03-29 09:11:00,71.1,26.7,29.98,ENE,66,0.0,1.0,19,0.00,,,0.00,573,LWC V2.00 B727,2013-03-29 16:11:00,
2013-03-29 09:16:00,71.7,25.9,29.98,ENE,66,1.0,1.0,18,0.00,,,0.00,585,LWC V2.00 B727,2013-03-29 16:16:00,
2013-03-29 09:21:00,71.5,24.4,29.98,South,174,0.0,1.0,17,0.00,,,0.00,601,LWC V2.00 B727,2013-03-29 16:21:00,
2013-03-29 09:26:00,71.5,25.8,29.98,South,173,0.0,1.0,18,0.00,,,0.00,617,LWC V2.00 B727,2013-03-29 16:26:00,
2013-03-29 09:31:00,73.0,25.6,29.98,South,175,0.0,2.0,17,0.00,,,0.00,633,LWC V2.00 B727,2013-03-29 16:31:00,
2013-03-29 09:36:00,72.5,25.2,29.97,South,176,0.0,2.0,17,0.00,,,0.00,647,LWC V2.00 B727,2013-03-29 16:36:00,
2013-03-29 09:41:00,72.4,25.1,29.97,South,176,0.0,0.0,17,0.00,,,0.00,663,LWC V2.00 B727,2013-03-29 16:41:00,
2013-03-29 09:46:00,73.4,27.3,29.97,South,177,0.0,1.0,18,0.00,,,0.00,677,LWC V2.00 B727,2013-03-29 16:46:00,
2013-03-29 09:51:00,74.8,27.1,29.97,WNW,290,0.0,0.0,17,0.00,,,0.00,689,LWC V2.00 B727,2013-03-29 16:51:00,
2013-03-29 09:56:00,74.6,26.9,29.97,WNW,290,0.0,1.0,17,0.00,,,0.00,703,LWC V2.00 B727,2013-03-29 16:56:00,
2013-03-29 10:01:00,74.8,28.5,29.97,NW,306,1.0,2.0,18,0.00,,,0.00,715,LWC V2.00 B727,2013-03-29 17:01:00,
2013-03-29 10:06:00,76.4,28.4,29.97,North,11,4.0,4.0,17,0.00,,,0.00,728,LWC V2.00 B727,2013-03-29 17:06:00,
2013-03-29 10:11:00,75.4,27.5,29.97,West,259,1.0,3.0,17,0.00,,,0.00,744,LWC V2.00 B727,2013-03-29 17:11:00,
2013-03-29 10:16:00,74.9,27.1,29.98,SW,235,1.0,4.0,17,0.00,,,0.00,754,LWC V2.00 B727,2013-03-29 17:16:00,
2013-03-29 10:21:00,75.2,27.4,29.97,SW,235,0.0,1.0,17,0.00,,,0.00,766,LWC V2.00 B727,2013-03-29 17:21:00,
2013-03-29 10:26:00,76.8,27.2,29.97,NNW,345,0.0,3.0,16,0.00,,,0.00,773,LWC V2.00 B727,2013-03-29 17:26:00,
2013-03-29 10:31:00,76.6,28.5,29.97,WSW,242,0.0,5.0,17,0.00,,,0.00,784,LWC V2.00 B727,2013-03-29 17:31:00,
2013-03-29 10:36:00,77.3,27.6,29.97,SW,234,4.0,7.0,16,0.00,,,0.00,795,LWC V2.00 B727,2013-03-29 17:36:00,
2013-03-29 10:41:00,75.8,27.9,29.97,WSW,240,3.0,3.0,17,0.00,,,0.00,805,LWC V2.00 B727,2013-03-29 17:41:00,
2013-03-29 10:46:00,75.7,29.2,29.97,WSW,240,1.0,4.0,18,0.00,,,0.00,814,LWC V2.00 B727,2013-03-29 17:46:00,
2013-03-29 10:51:00,77.3,29.1,29.97,West,271,1.0,4.0,17,0.00,,,0.00,824,LWC V2.00 B727,2013-03-29 17:51:00,
2013-03-29 10:56:00,77.1,30.3,29.97,SW,228,4.0,9.0,18,0.00,,,0.00,833,LWC V2.00 B727,2013-03-29 17:56:00,
2013-03-29 11:01:00,77.7,29.4,29.97,South,173,0.0,3.0,17,0.00,,,0.00,840,LWC V2.00 B727,2013-03-29 18:01:00,
2013-03-29 11:06:00,77.7,30.8,29.97,SSW,212,0.0,6.0,18,0.00,,,0.00,849,LWC V2.00 B727,2013-03-29 18:06:00,
2013-03-29 11:11:00,78.3,32.6,29.97,SW,225,3.0,7.0,19,0.00,,,0.00,854,LWC V2.00 B727,2013-03-29 18:11:00,
2013-03-29 11:16:00,78.6,32.9,29.97,West,262,2.0,7.0,19,0.00,,,0.00,865,LWC V2.00 B727,2013-03-29 18:16:00,
2013-03-29 11:21:00,79.4,33.5,29.96,WNW,286,5.0,5.0,19,0.00,,,0.00,868,LWC V2.00 B727,2013-03-29 18:21:00,
2013-03-29 11:26:00,79.1,33.3,29.96,WNW,285,2.0,7.0,19,0.00,,,0.00,874,LWC V2.00 B727,2013-03-29 18:26:00,
2013-03-29 11:31:00,79.9,33.9,29.96,West,259,7.0,7.0,19,0.00,,,0.00,882,LWC V2.00 B727,2013-03-29 18:31:00,
2013-03-29 11:36:00,80.0,31.3,29.96,WSW,241,3.0,4.0,17,0.00,,,0.00,888,LWC V2.00 B727,2013-03-29 18:36:00,
2013-03-29 11:41:00,80.2,31.4,29.96,SSW,195,7.0,8.0,17,0.00,,,0.00,895,LWC V2.00 B727,2013-03-29 18:41:00,
2013-03-29 11:46:00,78.6,30.1,29.96,WSW,241,7.0,7.0,17,0.00,,,0.00,900,LWC V2.00 B727,2013-03-29 18:46:00,
2013-03-29 11:51:00,79.8,31.1,29.96,West,259,0.0,9.0,17,0.00,,,0.00,904,LWC V2.00 B727,2013-03-29 18:51:00,
2013-03-29 11:56:00,78.3,29.9,29.95,SW,224,3.0,7.0,17,0.00,,,0.00,905,LWC V2.00 B727,2013-03-29 18:56:00,
2013-03-29 12:01:00,79.2,29.1,29.95,West,262,0.0,1.0,16,0.00,,,0.00,912,LWC V2.00 B727,2013-03-29 19:01:00,
2013-03-29 12:06:00,80.6,30.2,29.95,WSW,245,2.0,8.0,16,0.00,,,0.00,911,LWC V2.00 B727,2013-03-29 19:06:00,
2013-03-29 12:11:00,81.1,29.1,29.95,WNW,298,0.0,8.0,15,0.00,,,0.00,916,LWC V2.00 B727,2013-03-29 19:11:00,
2013-03-29 12:16:00,82.0,28.1,29.95,SW,232,6.0,6.0,14,0.00,,,0.00,918,LWC V2.00 B727,2013-03-29 19:16:00,
2013-03-29 12:21:00,81.3,25.8,29.94,SSW,193,0.0,4.0,13,0.00,,,0.00,919,LWC V2.00 B727,2013-03-29 19:21:00,
2013-03-29 12:26:00,81.3,23.8,29.94,SSW,204,4.0,11.0,12,0.00,,,0.00,921,LWC V2.00 B727,2013-03-29 19:26:00,
2013-03-29 12:31:00,81.1,23.7,29.94,SSW,206,7.0,9.0,12,0.00,,,0.00,919,LWC V2.00 B727,2013-03-29 19:31:00,
2013-03-29 12:36:00,81.2,23.8,29.94,West,275,3.0,10.0,12,0.00,,,0.00,921,LWC V2.00 B727,2013-03-29 19:36:00,
2013-03-29 12:41:00,82.1,22.4,29.94,West,259,2.0,11.0,11,0.00,,,0.00,921,LWC V2.00 B727,2013-03-29 19:41:00,
2013-03-29 12:46:00,81.9,22.2,29.93,SW,222,2.0,4.0,11,0.00,,,0.00,921,LWC V2.00 B727,2013-03-29 19:46:00,
2013-03-29 12:51:00,82.3,22.5,29.93,SW,230,7.0,11.0,11,0.00,,,0.00,918,LWC V2.00 B727,2013-03-29 19:51:00,
2013-03-29 12:56:00,81.8,24.2,29.93,SW,232,3.0,9.0,12,0.00,,,0.00,912,LWC V2.00 B727,2013-03-29 19:56:00,
2013-03-29 13:01:00,81.9,24.3,29.93,SW,225,4.0,7.0,12,0.00,,,0.00,907,LWC V2.00 B727,2013-03-29 20:01:00,
2013-03-29 13:06:00,82.5,20.4,29.93,WNW,292,1.0,7.0,10,0.00,,,0.00,909,LWC V2.00 B727,2013-03-29 20:06:00,
2013-03-29 13:11:00,82.1,22.4,29.93,SSW,205,10.0,10.0,11,0.00,,,0.00,904,LWC V2.00 B727,2013-03-29 20:11:00,
2013-03-29 13:16:00,81.4,21.8,29.92,WSW,246,3.0,8.0,11,0.00,,,0.00,898,LWC V2.00 B727,2013-03-29 20:16:00,
2013-03-29 13:21:00,81.7,22.1,29.92,SW,228,4.0,9.0,11,0.00,,,0.00,895,LWC V2.00 B727,2013-03-29 20:21:00,
2013-03-29 13:26:00,81.5,21.9,29.92,SSW,193,7.0,8.0,11,0.00,,,0.00,893,LWC V2.00 B727,2013-03-29 20:26:00,
2013-03-29 13:32:00,81.8,22.2,29.91,SW,231,2.0,4.0,11,0.00,,,0.00,875,LWC V2.00 B727,2013-03-29 20:32:00,
2013-03-29 13:37:00,82.1,24.5,29.91,South,189,5.0,8.0,12,0.00,,,0.00,872,LWC V2.00 B727,2013-03-29 20:37:00,
2013-03-29 13:42:00,82.5,24.8,29.91,SW,229,7.0,7.0,12,0.00,,,0.00,867,LWC V2.00 B727,2013-03-29 20:42:00,
2013-03-29 13:47:00,82.8,20.7,29.91,SW,230,3.0,8.0,10,0.00,,,0.00,863,LWC V2.00 B727,2013-03-29 20:47:00,
2013-03-29 13:52:00,82.3,22.5,29.91,West,268,5.0,7.0,11,0.00,,,0.00,854,LWC V2.00 B727,2013-03-29 20:52:00,
2013-03-29 13:57:00,82.7,24.9,29.91,WNW,286,3.0,9.0,12,0.00,,,0.00,849,LWC V2.00 B727,2013-03-29 20:57:00,
2013-03-29 14:02:00,82.9,23.0,29.90,WSW,247,0.0,4.0,11,0.00,,,0.00,840,LWC V2.00 B727,2013-03-29 21:02:00,
2013-03-29 14:07:00,83.4,23.4,29.90,West,265,3.0,9.0,11,0.00,,,0.00,835,LWC V2.00 B727,2013-03-29 21:07:00,
2013-03-29 14:12:00,83.0,23.1,29.90,West,281,5.0,5.0,11,0.00,,,0.00,714,LWC V2.00 B727,2013-03-29 21:12:00,
2013-03-29 14:17:00,82.5,24.8,29.89,SW,223,3.0,7.0,12,0.00,,,0.00,833,LWC V2.00 B727,2013-03-29 21:17:00,
2013-03-29 14:22:00,82.3,24.6,29.89,WSW,254,4.0,4.0,12,0.00,,,0.00,819,LWC V2.00 B727,2013-03-29 21:22:00,
2013-03-29 14:27:00,83.7,23.6,29.89,WNW,300,0.0,7.0,11,0.00,,,0.00,793,LWC V2.00 B727,2013-03-29 21:27:00,
2013-03-29 14:32:00,83.7,21.4,29.89,SW,218,5.0,8.0,10,0.00,,,0.00,765,LWC V2.00 B727,2013-03-29 21:32:00,
2013-03-29 14:37:00,83.3,18.6,29.89,West,269,2.0,7.0,9,0.00,,,0.00,784,LWC V2.00 B727,2013-03-29 21:37:00,
2013-03-29 14:42:00,83.7,18.9,29.89,West,279,2.0,6.0,9,0.00,,,0.00,780,LWC V2.00 B727,2013-03-29 21:42:00,
2013-03-29 14:47:00,84.2,19.3,29.89,NW,304,2.0,4.0,9,0.00,,,0.00,729,LWC V2.00 B727,2013-03-29 21:47:00,
2013-03-29 14:52:00,84.6,22.0,29.88,NW,306,0.0,6.0,10,0.00,,,0.00,821,LWC V2.00 B727,2013-03-29 21:52:00,
2013-03-29 14:57:00,84.6,22.0,29.88,NNE,17,2.0,6.0,10,0.00,,,0.00,838,LWC V2.00 B727,2013-03-29 21:57:00,
2013-03-29 15:02:00,84.3,24.1,29.88,WSW,252,3.0,7.0,11,0.00,,,0.00,796,LWC V2.00 B727,2013-03-29 22:02:00,
2013-03-29 15:07:00,84.1,23.9,29.88,SSW,195,3.0,11.0,11,0.00,,,0.00,814,LWC V2.00 B727,2013-03-29 22:07:00,
2013-03-29 15:12:00,83.8,21.4,29.88,WSW,240,4.0,7.0,10,0.00,,,0.00,779,LWC V2.00 B727,2013-03-29 22:12:00,
2013-03-29 15:17:00,84.1,21.7,29.88,West,259,4.0,11.0,10,0.00,,,0.00,807,LWC V2.00 B727,2013-03-29 22:17:00,
2013-03-29 15:22:00,84.0,21.6,29.88,West,263,4.0,10.0,10,0.00,,,0.00,775,LWC V2.00 B727,2013-03-29 22:22:00,
2013-03-29 15:27:00,83.5,23.5,29.88,WSW,244,6.0,7.0,11,0.00,,,0.00,733,LWC V2.00 B727,2013-03-29 22:27:00,
2013-03-29 15:32:00,83.3,23.3,29.88,West,259,0.0,8.0,11,0.00,,,0.00,686,LWC V2.00 B727,2013-03-29 22:32:00,
2013-03-29 15:37:00,83.4,18.7,29.88,West,274,0.0,3.0,9,0.00,,,0.00,647,LWC V2.00 B727,2013-03-29 22:37:00,
2013-03-29 15:42:00,82.2,20.2,29.88,West,267,2.0,9.0,10,0.00,,,0.00,622,LWC V2.00 B727,2013-03-29 22:42:00,
2013-03-29 15:47:00,83.0,18.4,29.87,West,263,2.0,8.0,9,0.00,,,0.00,606,LWC V2.00 B727,2013-03-29 22:47:00,
2013-03-29 15:52:00,82.9,18.3,29.87,SW,214,5.0,8.0,9,0.00,,,0.00,585,LWC V2.00 B727,2013-03-29 22:52:00,
2013-03-29 15:57:00,83.8,16.2,29.87,SW,235,6.0,8.0,8,0.00,,,0.00,563,LWC V2.00 B727,2013-03-29 22:57:00,
2013-03-29 16:02:00,83.3,15.9,29.87,West,267,3.0,6.0,8,0.00,,,0.00,411,LWC V2.00 B727,2013-03-29 23:02:00,
2013-03-29 16:07:00,82.8,15.5,29.87,SW,217,2.0,8.0,8,0.00,,,0.00,181,LWC V2.00 B727,2013-03-29 23:07:00,
2013-03-29 16:12:00,81.4,14.5,29.87,WSW,241,6.0,10.0,8,0.00,,,0.00,190,LWC V2.00 B727,2013-03-29 23:12:00,
2013-03-29 16:17:00,80.5,13.8,29.87,SW,227,6.0,10.0,8,0.00,,,0.00,271,LWC V2.00 B727,2013-03-29 23:17:00,
2013-03-29 16:22:00,80.4,10.7,29.87,WSW,248,6.0,6.0,7,0.00,,,0.00,265,LWC V2.00 B727,2013-03-29 23:22:00,
2013-03-29 16:27:00,81.2,11.3,29.87,WSW,244,5.0,7.0,7,0.00,,,0.00,547,LWC V2.00 B727,2013-03-29 23:27:00,
2013-03-29 16:32:00,82.1,15.0,29.87,SW,236,3.0,6.0,8,0.00,,,0.00,520,LWC V2.00 B727,2013-03-29 23:32:00,
2013-03-29 16:37:00,82.5,12.2,29.87,WSW,242,2.0,6.0,7,0.00,,,0.00,432,LWC V2.00 B727,2013-03-29 23:37:00,
2013-03-29 16:42:00,81.6,14.6,29.87,West,273,3.0,3.0,8,0.00,,,0.00,457,LWC V2.00 B727,2013-03-29 23:42:00,
2013-03-29 16:47:00,81.5,14.5,29.87,NW,324,1.0,1.0,8,0.00,,,0.00,410,LWC V2.00 B727,2013-03-29 23:47:00,
2013-03-29 16:52:00,81.3,19.5,29.87,NW,315,2.0,2.0,10,0.00,,,0.00,380,LWC V2.00 B727,2013-03-29 23:52:00,
2013-03-29 16:57:00,81.9,17.5,29.87,WSW,247,0.0,4.0,9,0.00,,,0.00,359,LWC V2.00 B727,2013-03-29 23:57:00,
2013-03-29 17:02:00,81.5,21.9,29.87,WNW,298,0.0,7.0,11,0.00,,,0.00,332,LWC V2.00 B727,2013-03-30 00:02:00,
2013-03-29 17:07:00,81.3,19.5,29.87,West,265,5.0,6.0,10,0.00,,,0.00,262,LWC V2.00 B727,2013-03-30 00:07:00,
2013-03-29 17:12:00,81.1,19.4,29.87,WNW,282,3.0,4.0,10,0.00,,,0.00,132,LWC V2.00 B727,2013-03-30 00:12:00,
2013-03-29 17:17:00,80.2,20.9,29.87,NW,311,5.0,8.0,11,0.00,,,0.00,97,LWC V2.00 B727,2013-03-30 00:17:00,
2013-03-29 17:22:00,79.5,20.4,29.87,WNW,303,2.0,4.0,11,0.00,,,0.00,98,LWC V2.00 B727,2013-03-30 00:22:00,
2013-03-29 17:27:00,78.9,19.9,29.87,NW,311,1.0,4.0,11,0.00,,,0.00,109,LWC V2.00 B727,2013-03-30 00:27:00,
2013-03-29 17:32:00,78.7,21.8,29.87,NNW,335,3.0,6.0,12,0.00,,,0.00,146,LWC V2.00 B727,2013-03-30 00:32:00,
2013-03-29 17:37:00,79.0,22.1,29.87,NW,310,0.0,4.0,12,0.00,,,0.00,174,LWC V2.00 B727,2013-03-30 00:37:00,
2013-03-29 17:42:00,78.8,19.9,29.87,NW,304,0.0,5.0,11,0.00,,,0.00,109,LWC V2.00 B727,2013-03-30 00:42:00,
2013-03-29 17:47:00,78.6,19.7,29.87,WNW,292,5.0,5.0,11,0.00,,,0.00,98,LWC V2.00 B727,2013-03-30 00:47:00,
2013-03-29 17:52:00,78.3,19.5,29.87,WNW,294,4.0,5.0,11,0.00,,,0.00,88,LWC V2.00 B727,2013-03-30 00:52:00,
2013-03-29 17:57:00,78.1,17.1,29.87,WNW,296,4.0,5.0,10,0.00,,,0.00,62,LWC V2.00 B727,2013-03-30 00:57:00,
2013-03-29 18:02:00,77.6,16.7,29.87,NW,306,0.0,5.0,10,0.00,,,0.00,62,LWC V2.00 B727,2013-03-30 01:02:00,
2013-03-29 18:07:00,77.4,16.6,29.87,WNW,287,1.0,4.0,10,0.00,,,0.00,65,LWC V2.00 B727,2013-03-30 01:07:00,
2013-03-29 18:12:00,77.4,14.2,29.87,WNW,302,4.0,6.0,9,0.00,,,0.00,60,LWC V2.00 B727,2013-03-30 01:12:00,
2013-03-29 18:17:00,77.2,14.0,29.88,West,268,0.0,5.0,9,0.00,,,0.00,51,LWC V2.00 B727,2013-03-30 01:17:00,
2013-03-29 18:22:00,77.0,13.9,29.88,NW,310,0.0,5.0,9,0.00,,,0.00,28,LWC V2.00 B727,2013-03-30 01:22:00,
2013-03-29 18:27:00,76.5,13.5,29.88,WNW,297,0.0,4.0,9,0.00,,,0.00,16,LWC V2.00 B727,2013-03-30 01:27:00,
2013-03-29 18:32:00,76.0,13.1,29.88,WNW,295,0.0,3.0,9,0.00,,,0.00,11,LWC V2.00 B727,2013-03-30 01:32:00,
2013-03-29 18:37:00,75.5,12.7,29.88,WNW,294,1.0,4.0,9,0.00,,,0.00,7,LWC V2.00 B727,2013-03-30 01:37:00,
2013-03-29 18:42:00,74.8,12.2,29.88,WNW,294,0.0,0.0,9,0.00,,,0.00,0,LWC V2.00 B727,2013-03-30 01:42:00,
2013-03-29 18:47:00,73.6,13.7,29.88,WNW,294,0.0,0.0,10,0.00,,,0.00,0,LWC V2.00 B727,2013-03-30 01:47:00,
2013-03-29 18:52:00,72.8,13.1,29.88,WNW,294,0.0,1.0,10,0.00,,,0.00,0,LWC V2.00 B727,2013-03-30 01:52:00,
2013-03-29 18:57:00,71.9,14.6,29.88,WNW,294,0.0,0.0,11,0.00,,,0.00,0,LWC V2.00 B727,2013-03-30 01:57:00,
2013-03-29 19:02:00,71.6,14.3,29.88,WNW,294,1.0,2.0,11,0.00,,,0.00,0,LWC V2.00 B727,2013-03-30 02:02:00,
2013-03-29 19:07:00,71.2,14.0,29.88,NW,309,3.0,3.0,11,0.00,,,0.00,0,LWC V2.00 B727,2013-03-30 02:07:00,
2013-03-29 19:12:00,70.9,13.8,29.88,NNE,13,3.0,4.0,11,0.00,,,0.00,0,LWC V2.00 B727,2013-03-30 02:12:00,
2013-03-29 19:17:00,70.8,13.7,29.88,North,11,0.0,1.0,11,0.00,,,0.00,0,LWC V2.00 B727,2013-03-30 02:17:00,
2013-03-29 19:22:00,70.4,15.4,29.89,North,11,0.0,2.0,12,0.00,,,0.00,0,LWC V2.00 B727,2013-03-30 02:22:00,
2013-03-29 19:27:00,70.4,15.4,29.89,ENE,59,2.0,3.0,12,0.00,,,0.00,0,LWC V2.00 B727,2013-03-30 02:27:00,
2013-03-29 19:32:00,70.0,16.9,29.89,ENE,59,2.0,4.0,13,0.00,,,0.00,0,LWC V2.00 B727,2013-03-30 02:32:00,
2013-03-29 19:37:00,69.2,18.0,29.89,ENE,62,2.0,4.0,14,0.00,,,0.00,0,LWC V2.00 B727,2013-03-30 02:37:00,
2013-03-29 19:42:00,69.1,16.2,29.89,ENE,60,3.0,5.0,13,0.00,,,0.00,0,LWC V2.00 B727,2013-03-30 02:42:00,
2013-03-29 19:47:00,69.7,14.8,29.90,NE,46,0.0,3.0,12,0.00,,,0.00,0,LWC V2.00 B727,2013-03-30 02:47:00,
2013-03-29 19:52:00,69.5,14.7,29.89,NE,35,3.0,4.0,12,0.00,,,0.00,0,LWC V2.00 B727,2013-03-30 02:52:00,
2013-03-29 19:57:00,69.6,14.8,29.90,NE,34,2.0,4.0,12,0.00,,,0.00,0,LWC V2.00 B727,2013-03-30 02:57:00,
2013-03-29 20:02:00,69.2,14.4,29.90,NE,44,0.0,4.0,12,0.00,,,0.00,0,LWC V2.00 B727,2013-03-30 03:02:00,
2013-03-29 20:07:00,68.8,16.0,29.90,NE,55,3.0,5.0,13,0.00,,,0.00,0,LWC V2.00 B727,2013-03-30 03:07:00,
2013-03-29 20:12:00,68.4,17.4,29.91,ENE,61,2.0,7.0,14,0.00,,,0.00,0,LWC V2.00 B727,2013-03-30 03:12:00,
2013-03-29 20:17:00,67.5,16.6,29.91,ENE,63,1.0,5.0,14,0.00,,,0.00,0,LWC V2.00 B727,2013-03-30 03:17:00,
2013-03-29 20:22:00,66.9,17.8,29.91,ENE,63,3.0,4.0,15,0.00,,,0.00,0,LWC V2.00 B727,2013-03-30 03:22:00,
2013-03-29 20:27:00,66.7,17.6,29.91,ENE,62,0.0,4.0,15,0.00,,,0.00,0,LWC V2.00 B727,2013-03-30 03:27:00,
2013-03-29 20:32:00,66.5,17.4,29.91,ENE,63,4.0,4.0,15,0.00,,,0.00,0,LWC V2.00 B727,2013-03-30 03:32:00,
2013-03-29 20:37:00,66.4,17.4,29.91,ENE,63,4.0,4.0,15,0.00,,,0.00,0,LWC V2.00 B727,2013-03-30 03:37:00,
2013-03-29 20:42:00,66.5,17.4,29.91,ENE,63,3.0,3.0,15,0.00,,,0.00,0,LWC V2.00 B727,2013-03-30 03:42:00,
2013-03-29 20:47:00,66.5,17.4,29.92,ENE,63,1.0,4.0,15,0.00,,,0.00,0,LWC V2.00 B727,2013-03-30 03:47:00,
2013-03-29 20:52:00,66.6,17.5,29.92,ENE,63,1.0,3.0,15,0.00,,,0.00,0,LWC V2.00 B727,2013-03-30 03:52:00,
2013-03-29 20:57:00,66.5,17.4,29.92,ENE,63,1.0,4.0,15,0.00,,,0.00,0,LWC V2.00 B727,2013-03-30 03:57:00,
2013-03-29 21:00:00,66.2,17.2,29.92,ENE,63,0.0,4.0,15,0.00,,,0.00,0,LWC V2.00 B727,2013-03-30 04:00:00,
2013-03-29 21:01:00,66.2,17.2,29.92,ENE,63,1.0,2.0,15,0.00,,,0.00,0,LWC V2.00 B727,2013-03-30 04:01:00,
2013-03-29 21:06:00,66.1,17.1,29.92,ENE,63,4.0,4.0,15,0.00,,,0.00,0,LWC V2.00 B727,2013-03-30 04:06:00,
2013-03-29 21:11:00,66.0,17.0,29.93,ENE,63,2.0,4.0,15,0.00,,,0.00,0,LWC V2.00 B727,2013-03-30 04:11:00,
2013-03-29 21:16:00,65.8,16.9,29.93,ENE,63,4.0,4.0,15,0.00,,,0.00,0,LWC V2.00 B727,2013-03-30 04:16:00,
2013-03-29 21:21:00,65.5,16.6,29.93,ENE,63,2.0,4.0,15,0.00,,,0.00,0,LWC V2.00 B727,2013-03-30 04:21:00,
2013-03-29 21:26:00,65.5,16.6,29.93,ENE,63,3.0,3.0,15,0.00,,,0.00,0,LWC V2.00 B727,2013-03-30 04:26:00,
2013-03-29 21:31:00,65.5,16.6,29.93,ENE,63,2.0,3.0,15,0.00,,,0.00,0,LWC V2.00 B727,2013-03-30 04:31:00,
2013-03-29 21:36:00,65.6,16.7,29.93,ENE,63,2.0,4.0,15,0.00,,,0.00,0,LWC V2.00 B727,2013-03-30 04:36:00,
2013-03-29 21:41:00,65.6,16.7,29.94,ENE,63,2.0,4.0,15,0.00,,,0.00,0,LWC V2.00 B727,2013-03-30 04:41:00,
2013-03-29 21:46:00,65.7,16.8,29.93,ENE,63,1.0,3.0,15,0.00,,,0.00,0,LWC V2.00 B727,2013-03-30 04:46:00,
2013-03-29 21:51:00,65.6,16.7,29.94,ENE,63,2.0,3.0,15,0.00,,,0.00,0,LWC V2.00 B727,2013-03-30 04:51:00,
2013-03-29 21:56:00,65.4,16.6,29.94,ENE,63,3.0,4.0,15,0.00,,,0.00,0,LWC V2.00 B727,2013-03-30 04:56:00,
2013-03-29 22:01:00,65.4,16.6,29.94,ENE,63,2.0,4.0,15,0.00,,,0.00,0,LWC V2.00 B727,2013-03-30 05:01:00,
2013-03-29 22:06:00,65.3,16.5,29.94,ENE,63,3.0,4.0,15,0.00,,,0.00,0,LWC V2.00 B727,2013-03-30 05:06:00,
2013-03-29 22:11:00,65.2,16.4,29.94,ENE,63,2.0,4.0,15,0.00,,,0.00,0,LWC V2.00 B727,2013-03-30 05:11:00,
2013-03-29 22:16:00,65.2,16.4,29.94,ENE,63,2.0,4.0,15,0.00,,,0.00,0,LWC V2.00 B727,2013-03-30 05:16:00,
2013-03-29 22:21:00,65.6,16.7,29.94,ENE,62,1.0,3.0,15,0.00,,,0.00,0,LWC V2.00 B727,2013-03-30 05:21:00,
2013-03-29 22:26:00,66.3,15.7,29.94,ENE,62,2.0,4.0,14,0.00,,,0.00,0,LWC V2.00 B727,2013-03-30 05:26:00,
2013-03-29 22:31:00,65.5,16.6,29.94,ENE,62,0.0,0.0,15,0.00,,,0.00,0,LWC V2.00 B727,2013-03-30 05:31:00,
2013-03-29 22:36:00,64.4,15.8,29.94,ENE,62,0.0,0.0,15,0.00,,,0.00,0,LWC V2.00 B727,2013-03-30 05:36:00,
2013-03-29 22:41:00,64.5,15.8,29.95,ENE,62,0.0,0.0,15,0.00,,,0.00,0,LWC V2.00 B727,2013-03-30 05:41:00,
2013-03-29 22:46:00,63.4,16.4,29.95,ENE,62,0.0,0.0,16,0.00,,,0.00,0,LWC V2.00 B727,2013-03-30 05:46:00,
2013-03-29 22:51:00,63.0,16.1,29.95,ENE,62,0.0,0.0,16,0.00,,,0.00,0,LWC V2.00 B727,2013-03-30 05:51:00,
2013-03-29 22:56:00,64.1,15.5,29.94,ENE,62,0.0,0.0,15,0.00,,,0.00,0,LWC V2.00 B727,2013-03-30 05:56:00,
2013-03-29 23:01:00,64.9,16.2,29.94,ENE,62,0.0,0.0,15,0.00,,,0.00,0,LWC V2.00 B727,2013-03-30 06:01:00,
2013-03-29 23:06:00,63.8,18.2,29.95,ENE,62,0.0,1.0,17,0.00,,,0.00,0,LWC V2.00 B727,2013-03-30 06:06:00,
2013-03-29 23:11:00,61.0,18.5,29.95,ENE,62,2.0,3.0,19,0.00,,,0.00,0,LWC V2.00 B727,2013-03-30 06:11:00,
2013-03-29 23:16:00,60.2,19.0,29.94,ENE,62,0.0,1.0,20,0.00,,,0.00,0,LWC V2.00 B727,2013-03-30 06:16:00,
2013-03-29 23:21:00,60.3,19.1,29.94,ENE,62,0.0,1.0,20,0.00,,,0.00,0,LWC V2.00 B727,2013-03-30 06:21:00,
2013-03-29 23:26:00,60.7,17.0,29.94,NE,35,2.0,4.0,18,0.00,,,0.00,0,LWC V2.00 B727,2013-03-30 06:26:00,
2013-03-29 23:31:00,61.9,16.6,29.94,NNE,19,5.0,5.0,17,0.00,,,0.00,0,LWC V2.00 B727,2013-03-30 06:31:00,
2013-03-29 23:36:00,63.3,16.4,29.95,NNE,18,0.0,3.0,16,0.00,,,0.00,0,LWC V2.00 B727,2013-03-30 06:36:00,
2013-03-29 23:41:00,64.1,17.0,29.95,NNE,18,0.0,0.0,16,0.00,,,0.00,0,LWC V2.00 B727,2013-03-30 06:41:00,
2013-03-29 23:46:00,64.1,15.5,29.95,NNE,18,0.0,1.0,15,0.00,,,0.00,0,LWC V2.00 B727,2013-03-30 06:46:00,
2013-03-29 23:51:00,64.5,15.8,29.95,NNE,18,2.0,2.0,15,0.00,,,0.00,0,LWC V2.00 B727,2013-03-30 06:51:00,
2013-03-29 23:56:00,65.2,14.8,29.94,NNE,18,0.0,1.0,14,0.00,,,0.00,0,LWC V2.00 B727,2013-03-30 06:56:00,